Location: Vienna
(48.2082°N, 16.3738°E)
Time: 22:23:37
(UTC+02:00)

ISS - Pass Details

Date: 21 July 2018
Orbit: 402 x 408 km, 51.6° (Epoch: 20 July)

Event Time Altitude Azimuth Distance (km) Brightness Sun altitude
Rises 02:59:04 0° 292° (WNW) 2,331 0.0 -16.4°
Reaches altitude 10° 03:01:10 10° 291° (WNW) 1,470 -1.1 -16.2°
Maximum altitude 03:04:27 77° 205° (SSW) 421 -4.0 -15.9°
Drops below altitude 10° 03:07:44 10° 119° (ESE) 1,466 -1.0 -15.7°
Sets 03:09:49 0° 118° (ESE) 2,324 0.1 -15.5°
